KOREASAT 7 (42691 NORAD) Tracking and Keplerian Element Data

This shows tracking and keplerian element data for the satellite.

Feedback or suggestion? Click here.




ElementValue
Catalog42691
NameKOREASAT 7
Epoch Orbit444
Epoch Day197.860041
Epoch Year2018
RAAN32.4006
Inclination0.0241
Eccentricity0.000197
Argument of Perigee87.7444
Mean Anonmoly239.8745
Mean Motion1.00268648
Decay Rate-3.82E-06
L11 42691U 17023A 18197.86004100 -.00000382 00000-0 00000+0 0 9993
L22 42691 0.0241 32.4006 0001970 87.7444 239.8745 1.00268648 4442

Live tracking and technical data element details for KOREASAT 7 (NORAD 42691). KOREASAT 7 can be tracked NOW for your location showing map with azimuth and elevation plus other details from your city location.

Track the satellite on the map from your city or location and see movement details for azimuth, elevation, latitude, longitude, range, height, and movement on the map or in text.







IsCatalogInMostPopularTable: catalog: 42691, numindb: 80
Update: records affected: 1



GetName: 42691 KOREASAT 7

Hit Count: updated at: Thu, 19 Jul 2018 03:31:23 GMT